Weather History for Evanston, WY

Change the Weather History Date:

Tuesday, March 26, 2013

  Actual Average Record
Temperature  
Mean Temperature 37 °F 34 °F  
Max Temperature 48 °F 43 °F 60 °F (2007)
Min Temperature 26 °F 25 °F 15 °F (2005)
Degree Days  
Heating Degree Days 28 31  
Month to date heating degree days 886 908  
Since 1 July heating degree days 6481 6916  
Cooling Degree Days 0 0  
Month to date cooling degree days 0 0  
Year to date cooling degree days 0 0  
Moisture  
Dew Point 20 °F    
Average Humidity 54    
Maximum Humidity 75    
Minimum Humidity 33    
Precipitation  
Precipitation 0.00 in 0.04 in 0.15 in (2004)
Month to date precipitation 0.40 0.66  
Year to date precipitation 0.87 1.81  
Sea Level Pressure  
Sea Level Pressure 29.94 in    
Wind  
Wind Speed 7 mph (SSW)    
Max Wind Speed 17 mph    
Max Gust Speed 30 mph    
Visibility 10 miles    
Events      
T = Trace of Precipitation, MM = Missing Value Source: NWS Daily Summary

Daily Weather History Graph

Daily Weather History Graph

Search for Another Location

Airport:

Trip Planner

Search our weather history database for the weather conditions in past years. The results will help you decide how hot, cold, wet, or windy it might be!

Date:

Astronomy

Mar. 26, 2013 Rise Set
Actual Time 7:16 AM MDT 7:43 PM MDT
Civil Twilight 6:49 AM MDT 8:10 PM MDT
Nautical Twilight 6:16 AM MDT 8:43 PM MDT
Astronomical Twilight 5:43 AM MDT 9:16 PM MDT
Moon 7:24 PM MDT 6:35 AM MDT
Length of Visible Light 13h 21m
Length of Day
12h 26m
Waxing Gibbous, 99% of the Moon is Illuminated
Mar 26
Waxing Gibbous
Mar 27
Full
Apr 2
Last Quarter
Apr 10
New
Apr 18
First Quarter

Hourly Weather History & Observations

Time (MDT) Temp. Windchill Dew Point Humidity Pressure Visibility Wind Dir Wind Speed Gust Speed Precip Events Conditions
12:53 AM 30.9 °F 27.5 °F 18.0 °F 59% 30.05 in 10.0 mi South 3.5 mph - N/A   Clear
1:53 AM 30.9 °F - 18.0 °F 59% 30.02 in 10.0 mi Calm Calm - N/A   Mostly Cloudy
2:53 AM 28.0 °F 22.8 °F 19.0 °F 69% 30.01 in 10.0 mi SSE 4.6 mph - N/A   Clear
3:53 AM 28.0 °F 22.8 °F 19.0 °F 69% 29.98 in 10.0 mi South 4.6 mph - N/A   Overcast
4:53 AM 28.0 °F 24.2 °F 19.0 °F 69% 29.97 in 10.0 mi East 3.5 mph - N/A   Overcast
5:53 AM 28.0 °F 21.7 °F 19.0 °F 69% 29.94 in 10.0 mi East 5.8 mph - N/A   Clear
6:53 AM 28.0 °F 24.2 °F 19.0 °F 69% 29.96 in 10.0 mi ENE 3.5 mph - N/A   Partly Cloudy
7:53 AM 26.1 °F 17.6 °F 19.0 °F 75% 29.98 in 10.0 mi East 8.1 mph - N/A   Partly Cloudy
8:53 AM 28.9 °F 20.4 °F 19.0 °F 67% 29.97 in 10.0 mi East 9.2 mph - N/A   Overcast
9:53 AM 32.0 °F 26.4 °F 19.9 °F 61% 29.95 in 10.0 mi East 5.8 mph - N/A   Partly Cloudy
10:53 AM 35.1 °F - 21.0 °F 57% 29.94 in 10.0 mi Calm Calm - N/A   Overcast
11:53 AM 39.0 °F - 21.0 °F 49% 29.92 in 10.0 mi Calm Calm - N/A   Overcast
12:53 PM 45.0 °F 40.6 °F 21.9 °F 40% 29.87 in 10.0 mi SW 8.1 mph - N/A   Overcast
1:53 PM 46.9 °F - 19.9 °F 34% 29.85 in 10.0 mi WSW 11.5 mph 17.3 mph N/A   Overcast
2:53 PM 46.0 °F 39.9 °F 19.9 °F 35% 29.86 in 10.0 mi WSW 13.8 mph 25.3 mph N/A   Overcast
3:53 PM 46.9 °F - 19.0 °F 33% 29.85 in 10.0 mi WSW 17.3 mph 25.3 mph N/A   Mostly Cloudy
4:53 PM 44.1 °F 37.1 °F 18.0 °F 35% 29.88 in 10.0 mi WSW 15.0 mph - N/A   Mostly Cloudy
5:53 PM 44.1 °F 36.5 °F 19.9 °F 38% 29.89 in 10.0 mi West 17.3 mph 21.9 mph N/A   Scattered Clouds
6:53 PM 42.1 °F 35.7 °F 21.0 °F 43% 29.91 in 10.0 mi West 11.5 mph - N/A   Overcast
7:53 PM 37.9 °F 30.0 °F 21.9 °F 53% 29.95 in 10.0 mi WSW 12.7 mph - N/A   Clear
8:53 PM 35.1 °F 26.9 °F 23.0 °F 61% 29.97 in 10.0 mi SW 11.5 mph - N/A   Scattered Clouds
9:53 PM 33.1 °F 25.5 °F 24.1 °F 70% 29.97 in 10.0 mi SW 9.2 mph - N/A   Clear
10:53 PM 30.0 °F 21.7 °F 24.1 °F 79% 29.98 in 10.0 mi SW 9.2 mph - N/A   Clear
11:53 PM 30.9 °F 27.5 °F 25.0 °F 79% 29.96 in 10.0 mi SSW 3.5 mph - N/A   Clear